SCP
0 0 0 0 0 0 0 0 0 0 0 0 0 0 0 0 0 0 0 0 0 0 0 0 0 0 0 0 0 0 0 0 0 0 0 0 0 0
0 0 0 0 0 0 0 0 0 0 0 0 0 0 0 0 0 0 0 0 0 0 0 0 0 0 0 0 0 0 0 0 0 0 0 0 0 0
0 0 0 0 0 0 0 0 0 0 0 0 0 0 0 0 0 0 0 0 0 0 0 0 0 0 0 0 0 0 0 0 0 0 0 0 0 0
0 0 0 0 0 0 0 0 0 0 0 0 0 0 0 0 0 0 0 0 0 0 0 0 0 0 0 0 0 0 0 0 0 0 0 0 0 0
0 0 0 0 0 0 0 0 0 0 0 0 0 0 0 0 0 0 0 0 0 0 0 0 0 0 0 0 0 0 0 0 0 0 0 0 0 0
0 0 0 0 0 0 0 0 0 0 0 0 0 0 0 0 0 0 0 0 0 0 0 0 0 0 0 0 0 0 0 0 0 0 0 0 0 0
0 0 0 0 0 0 0 0 0 0 0 0 0 0 0 0 0 0 0 0 0 0 0 0 0 0 0 0 0 0 0 0 0 0 0 0 0 0
0 0 0 0 0 0 0 0 0 0 0 0 0 0 0 0 0 0 0 0 0 0 0 0 0 0 0 0 0 0 0 0 0 0 0 0 0 0
-0 -0 -0 -0 -0 0 0 0 0 0 0 0 0 0 0 0 0 0 0 0 0 0 0 0 0 0 0 0 0 0 0 0 0 0 0 0 0 0
-0 -0 -0 -0 -0 -0 -0 -0 0 0 0 0 0 0 0 0 0 0 0 0 0 0 0 0 0 0 0 0 0 0 0 0 0 0 0 0 0 0
-0 -0 -0 -0 -0 -0 0 0 0 0 0 0 0 0 0 0 0 0 0 0 0 0 0 0 0 0 0 0 0 0 0 0 0 0 0 0 0 0
0 0 -0 -0 -0 -0 0 0 0 0 0 0 0 0 0 0 0 0 0 0 0 0 0 0 0 0 0 0 0 0 0 0 0 0 0 0 0 0
0 0 0 0 -0 -0 0 0 0 0 0 0 0 0 0 0 0 0 0 0 0 0 0 0 0 0 0 0 0 0 0 0 0 0 0 0 0 0
0 0 0 0 0 0 0 0 0 0 0 0 0 0 0 0 0 0 0 0 0 0 0 0 0 0 0 0 0 0 0 0 0 0 0 0 0 0
0 0 0 0 0 0 0 0 0 0 0 0 0 0 0 0 0 0 0 0 0 0 0 0 0 0 0 0 0 0 0 0 0 0 0 0 0 0
0 0 0 0 0 0 0 0 0 0 0 0 0 0 0 0 0 0 0 0 0 0 0 0 0 0 0 0 0 0 0 0 0 0 0 0 0 0
0 0 0 0 0 0 0 0 0 0 0 0 0 0 0 0 0 0 0 0 0 0 0 0 0 0 0 0 0 0 0 0 0 0 0 0 0 0
0 0 0 0 0 0 0 0 0 0 0 0 0 0 0 0 0 0 0 0 0 0 0 0 0 0 0 0 0 0 0 0 0 0 0 0 0 0
0 0 0 0 0 0 0 0 0 0 0 0 0 0 0 0 0 0 0 0 0 0 0 0 0 0 0 0 0 0 0 0 0 0 0 0 0 0
0 0 0 0 0 0 0 0 0 0 0 0 0 0 0 0 0 0 0 0 0 0 0 0 0 0 0 0 0 0 0 0 0 0 0 0 0 0
0 0 0 0 0 0 0 0 0 0 0 0 0 0 0 0 0 0 0 0 0 0 0 0 0 0 0 0 0 0 0 0 0 0 0 0 0 0
0 0 0 0 0 0 0 0 0 0 0 0 0 -0 0 0 0 0 0 0 0 0 0 0 0 0 0 0 0 0 0 0 0 0 0 0 0 0
0 0 0 0 0 0 0 -0 0 0 0 0 0 -0 -0 -0 -0 0 0 0 0 0 0 0 0 0 0 0 0 0 0 0 0 0 0 0 0 0
Wind_Speed
8 8 7 6 5 5 4 3 2 2 3 3 3 3 3 2 4 3 2 3 3 4 4 5 6 7 8 9 10 10 11 11 12 12 13 14 14 15
6 8 8 6 5 5 5 4 4 2 2 2 2 2 3 3 4 3 2 5 5 6 6 6 7 8 9 9 10 11 11 11 11 12 12 13 14 15
7 8 8 6 5 5 5 5 5 3 3 1 2 2 3 3 3 3 3 3 3 7 7 7 7 8 9 9 9 10 9 9 9 10 11 11 12 13
7 7 7 6 7 5 5 6 4 4 2 2 2 2 2 3 3 3 3 3 3 6 7 8 8 8 8 8 8 7 7 7 8 8 8 9 10 12
6 6 5 6 6 4 5 4 3 3 2 1 2 2 2 2 3 3 3 3 4 5 5 6 7 7 7 7 6 6 5 6 6 6 7 8 9 10
5 5 4 4 4 4 4 4 3 3 3 2 2 2 2 2 2 2 3 3 4 3 4 5 5 6 7 6 6 5 5 5 5 5 6 6 8 9
6 5 5 6 7 4 3 2 2 2 2 2 2 2 2 2 2 2 3 4 3 2 4 4 4 3 4 5 5 5 5 5 5 5 6 7 8 9
5 5 4 6 8 8 8 5 3 1 1 1 1 2 3 3 2 2 2 3 3 2 3 4 3 3 3 3 5 6 6 6 6 6 7 7 8 8
4 4 4 5 6 5 7 7 6 4 2 2 3 3 3 3 3 3 2 3 4 3 3 3 2 3 3 3 6 6 6 7 7 7 8 8 8 8
4 4 4 5 6 6 6 6 6 5 4 2 4 6 6 6 5 3 3 4 5 3 2 2 3 3 3 3 4 7 7 8 8 8 8 8 7 7
5 4 5 5 8 8 5 6 7 5 4 5 7 8 10 9 6 3 2 2 3 2 0 2 3 3 3 3 3 6 8 8 8 8 8 8 8 7
5 5 6 7 9 7 3 4 6 6 7 8 7 6 4 3 2 4 3 2 2 2 0 1 2 3 3 2 3 4 5 6 7 7 8 8 8 6
4 5 6 11 10 8 3 2 5 6 6 6 5 5 4 3 2 1 3 3 2 2 1 1 1 2 2 4 4 3 4 4 5 5 6 7 8 6
3 4 6 10 8 7 5 5 5 4 2 3 4 4 4 4 4 4 2 3 4 4 3 2 1 1 2 3 4 5 5 4 4 5 5 5 5 6
3 6 7 8 7 6 7 8 5 4 3 3 4 4 4 4 4 3 2 1 0 1 1 2 2 1 1 2 3 4 4 4 4 5 5 4 4 5
4 6 7 8 7 6 6 6 4 3 3 3 3 4 4 3 3 3 2 2 2 2 2 1 1 2 2 2 2 3 3 4 5 5 4 4 4 4
3 4 5 5 6 6 5 5 5 5 5 4 4 4 4 4 3 3 2 2 2 2 3 2 1 1 3 2 2 3 3 3 3 4 4 4 4 4
4 4 4 4 5 5 6 6 5 6 6 5 4 4 4 4 4 3 2 2 2 2 2 3 3 3 1 1 3 3 3 3 3 3 3 3 4 4
5 4 4 4 4 4 5 5 5 5 5 5 5 5 4 4 3 3 3 3 3 3 2 2 2 2 4 4 2 3 3 3 3 3 2 2 3 4
3 3 3 3 4 4 5 5 5 6 5 5 5 5 5 4 3 4 4 4 3 3 3 2 2 2 2 3 4 3 4 4 3 4 3 2 3 4
3 3 3 3 3 4 4 5 5 5 6 5 5 5 5 4 3 4 4 4 3 3 4 4 4 4 3 2 3 4 2 3 5 3 4 4 4 3
2 2 3 3 3 4 4 5 5 5 6 5 5 5 5 4 4 4 4 4 3 3 3 3 4 2 1 2 3 5 5 4 2 6 7 5 4 4
2 2 2 3 4 4 4 5 6 5 5 5 5 5 5 5 4 4 3 3 3 4 4 4 4 3 3 3 3 3 5 5 4 4 3 3 8 11
Wind_Direction
59 57 54 43 38 36 39 39 66 63 36 11 12 5 8 33 45 37 31 21 360 341 325 310 300 293 289 287 284 283 282 282 283 284 286 288 290 292
56 56 50 40 39 36 39 40 44 77 69 15 9 352 357 24 25 13 359 347 333 326 318 309 301 293 289 286 285 285 284 282 282 285 287 290 292 295
51 54 50 43 42 34 37 41 39 48 78 26 357 353 4 9 358 352 343 327 317 311 306 301 294 290 289 291 293 293 290 291 293 294 296 298 301 302
49 52 46 46 43 35 38 39 36 33 54 34 356 353 351 347 341 332 327 322 307 299 299 295 293 293 296 299 300 299 297 298 297 299 303 306 308 309
49 50 42 44 40 32 34 33 27 32 40 39 350 331 320 334 336 323 318 310 306 304 295 295 306 315 316 315 312 307 305 303 299 298 302 306 309 311
46 45 40 42 37 23 24 21 21 25 24 20 356 338 321 323 323 329 329 326 317 322 325 319 319 325 328 330 327 327 326 321 314 306 303 302 304 306
37 32 33 43 40 28 16 6 11 13 8 3 350 331 321 326 330 324 315 320 309 329 323 322 329 331 339 340 341 343 341 339 333 324 316 309 305 303
33 20 21 29 20 17 12 6 354 330 325 318 312 308 302 294 294 305 314 331 320 342 324 314 330 326 337 341 347 353 359 356 346 336 328 321 314 310
30 16 10 8 6 357 353 358 354 337 275 235 265 275 279 275 293 301 299 294 286 307 320 302 322 320 336 346 353 2 1 352 346 341 336 331 326 322
20 8 356 347 351 349 345 346 341 333 312 270 257 268 268 270 256 266 295 295 281 270 247 289 321 320 327 331 347 355 352 349 348 347 346 343 338 331
2 358 351 342 337 347 350 342 337 333 323 309 285 278 276 274 257 233 253 284 315 327 251 285 316 319 314 314 333 346 347 349 352 353 355 354 350 341
347 349 352 342 334 338 335 331 331 328 335 337 336 333 324 317 250 215 233 253 291 307 311 296 324 335 324 316 320 335 344 344 347 351 353 355 355 348
347 344 337 336 338 343 334 291 287 302 314 321 325 335 344 355 356 299 229 223 243 274 294 283 313 330 314 309 317 325 338 339 342 344 348 351 354 354
336 330 325 334 349 3 6 346 332 329 331 342 350 348 345 343 336 331 306 231 234 260 281 255 279 304 320 320 318 325 331 344 347 342 343 344 352 352
325 326 341 358 9 14 14 13 12 12 7 3 350 332 317 310 312 328 3 17 275 257 264 218 225 251 268 299 312 322 326 332 345 344 342 348 353 352
356 353 6 18 27 18 11 13 17 11 4 346 326 318 324 336 354 359 2 0 1 358 30 51 245 245 279 289 298 316 323 319 331 340 336 342 360 2
356 17 22 17 16 11 4 3 6 10 9 355 348 345 349 355 360 357 359 359 1 341 337 348 331 268 253 270 309 323 327 324 327 331 334 345 2 7
57 41 26 18 12 4 357 353 359 2 355 346 349 354 351 350 354 0 2 360 351 335 327 329 337 343 343 215 219 294 318 319 323 328 330 335 350 6
57 39 24 11 3 359 356 351 348 343 340 346 353 354 350 351 359 0 0 357 349 334 326 324 333 345 343 338 318 210 268 310 318 322 330 320 320 334
39 27 12 3 360 356 353 349 343 347 353 353 354 354 353 350 355 357 357 349 337 328 328 332 331 317 301 311 308 297 233 260 300 314 320 305 283 277
21 15 6 358 355 351 347 345 345 348 350 348 350 350 349 347 350 352 350 348 347 336 333 336 329 307 266 270 288 304 304 236 243 279 311 316 320 325
11 7 1 359 354 350 346 345 347 351 352 352 346 344 343 342 343 344 349 350 345 335 320 322 335 350 7 338 327 321 323 330 276 241 244 253 297 320
357 356 356 354 353 348 347 347 348 346 348 344 339 338 339 340 336 336 341 348 345 348 347 346 355 7 9 354 338 333 340 345 343 339 340 263 249 259